Regional Weather Roundup
Issued by NWS

Home | Current Version | Previous Version | Text Only | Print | Product List | Glossary Off
Versions: 1 2 3 4 5 6 7 8 9 10 11 12 13 14 15 16 17 18 19 20 21 22 23 24 25 26 27 28 29 30 31 32 33 34 35 36 37 38 39 40 41 42 43 44 45 46 47 48 49 50

019
ASUS43 KMPX 042010
RWRMN
WEATHER ROUNDUP FOR MINNESOTA
NATIONAL WEATHER SERVICE TWIN CITIES/CHANHASSEN MN
200 PM CST SUN DEC 04 2016


NOTE: "FAIR" INDICATES FEW OR NO CLOUDS BELOW 12,000 FEET WITH NO
SIGNIFICANT WEATHER AND/OR OBSTRUCTIONS TO VISIBILITY. N/A MEANS
CURRENT SKY AND/OR WEATHER CONDITIONS ARE NOT AVAILABLE.

MNZ060>063-068>070-042100-
   Twin Cities Metro

CITY           SKY/WX    TMP DP  RH WIND       PRES   REMARKS
TWIN CITIES    CLOUDY    36  31  82 S8        29.78F
ST PAUL        CLOUDY    35  33  92 S7        29.79F WCI  29
CRYSTAL        CLOUDY    35  30  82 S8        29.76F WCI  29
BLAINE         CLOUDY    36  36 100 S10       29.76F
LAKEVILLE      CLOUDY    34  34 100 SW3       29.79F
EDEN PRAIRIE   CLOUDY    36  32  85 S12       29.76F
SOUTH ST PAUL  CLOUDY    35  33  91 S7        29.79F WCI  29
LAKE ELMO      CLOUDY    34  32  93 S12       29.79F WCI  25
$$
MNZ001>005-007-008-013>017-022>024-027-028-042100-
   Northwest Minnesota

CITY           SKY/WX    TMP DP  RH WIND       PRES   REMARKS
BEMIDJI        FLURRIES  32  31  97 S7        29.64F WCI  26
HALLOCK        CLOUDY    32  30  93 CALM      29.61F
ROSEAU         CLOUDY    34  30  86 S9        29.61F WCI  26
WARROAD        CLOUDY    34  28  80 SE12G17   29.62F WCI  25
THIEF RVR FALL CLOUDY    30  28  92 W14       29.64S WCI  19
CROOKSTON      CLOUDY    30  30 100 W9        29.66F WCI  22
FOSSTON        CLOUDY    30  30 100 SW12      29.65S FOG     WCI  21
DETROIT LAKES  CLOUDY    32  32 100 W7        29.67F FOG     WCI  26
MOORHEAD       PTSUNNY   34  30  86 W10       29.70S WCI  26
PARK RAPIDS    LGT SNOW  33  30  88 S7        29.65F FOG     WCI  27
$$
MNZ006-009>011-018-025>026-042100-
   North Central Minnesota

CITY           SKY/WX    TMP DP  RH WIND       PRES   REMARKS
BAUDETTE       CLOUDY    32  30  92 SE10      29.64F FOG     WCI  24
FLAG ISLAND    LGT SNOW  30  30 100 SE15      29.62F WCI  19
INTL FALLS     CLOUDY    32  28  85 SE7       29.69F FOG     WCI  26
WASKISH        LGT SNOW  34  30  86 SE6       29.65F WCI  29
BIG FORK       FLURRIES  32  28  86 SE5       29.68F WCI  27
LONGVILLE      MIX PCPN  32  30  93 S7        29.67F WCI  26
GRAND RAPIDS   LGT SNOW  31  29  92 SE8       29.70F VSB 1   WCI  23
CRANE LAKE     FLURRIES  30  30 100 CALM      29.74F
ORR            MIX PCPN  30  27  86 SE8       29.68F WCI  23
COOK           FLURRIES  30  28  93 SE5       29.72F WCI  25
$$
MNZ012-019>021-037-042100-
   Northeast Minnesota

CITY           SKY/WX    TMP DP  RH WIND       PRES   REMARKS
DULUTH         CLOUDY    31  29  92 S9        29.74F FOG     WCI  23
ELY            LGT SNOW  32  28  86 SE8       29.74F WCI  25
HIBBING        LGT SNOW  30  28  92 SE10      29.71F FOG     WCI  21
EVELETH        MIX PCPN  32  30  91 SE7       29.73F WCI  26
DULUTH HARBOR  CLOUDY    34  30  86 S8        29.78F WCI  27
TWO HARBORS    LGT SNOW  36  30  80 S6        29.75F
SILVER BAY     LGT SNOW  34  32  93 S6        29.76F WCI  29
GRAND MARAIS     N/A     35  34  96 SE9       29.84F WCI  28
G MARAIS ARPRT LGT SNOW  28  25  86 SE6       29.78F WCI  22
$$
MNZ029>031-032-039>041-046>048-054>057-064-042100-
   West Central Minnesota

CITY           SKY/WX    TMP DP  RH WIND       PRES   REMARKS
FERGUS FALLS   CLOUDY    34  34 100 W8        29.73F WCI  27
WHEATON        CLOUDY   N/A N/A N/A W10       29.75F
MORRIS         CLOUDY    36  30  80 W15G24    29.71F
ALEXANDRIA     CLOUDY    34  32  92 W10       29.70F WCI  26
ELBOW LAKE     CLOUDY    33  32  95 SW16      29.71F WCI  23
WADENA         DRIZZLE   32  30  93 SW10G17   29.67S WCI  24
GLENWOOD       CLOUDY    34  32  93 SW12      29.71S WCI  25
APPLETON       CLOUDY    37  32  81 W13       29.73F
BENSON         CLOUDY    37  30  75 NW14G20   29.73S
ORTONVILLE     CLOUDY    37  30  75 W14       29.74S
MADISON        PTSUNNY   41  34  75 W15       29.75F
WILLMAR        PTSUNNY   39  36  87 SW14      29.74F
$$
MNZ033>034-036-042>043-049>051-058-059-042100-
   Central Minnesota

CITY           SKY/WX    TMP DP  RH WIND       PRES   REMARKS
ST CLOUD       CLOUDY    34  33  96 S10       29.72F WCI  26
PAYNESVILLE    CLOUDY    35  35 100 SW7       29.72F WCI  29
AITKIN         MIX PCPN  36  30  80 S8        29.69F
PINE RIVER     CLOUDY    32  32 100 S8        29.71F WCI  25
BRAINERD       LGT SNOW  32  31  96 S10       29.69F FOG     WCI  24
STAPLES        LGT SNOW  32  32 100 S8        29.68F WCI  25
LONG PRAIRIE   CLOUDY    32  32 100 S7        29.70F FOG     WCI  26
LITTLE FALLS   LGT SNOW  32  32 100 S6        29.71F WCI  26
LITCHFIELD     CLOUDY    37  36  93 SW5       29.74F
BUFFALO        CLOUDY    35  32  89 S8        29.76F WCI  28
MAPLE LAKE     CLOUDY    36  34  94 S5        29.75F
$$
MNZ037-044-045-052-053-042100-
   East Central Minnesota

CITY           SKY/WX    TMP DP  RH WIND       PRES   REMARKS
PRINCETON      CLOUDY    36  34  93 S7        29.74F
MORA           MIX PCPN  32  30  93 S8        29.75F WCI  25
CAMBRIDGE      CLOUDY    36  34  93 S7        29.73F
RUSH CITY      CLOUDY    32  32 100 S7        29.76F WCI  26
MOOSE LAKE     CLOUDY    32  30  93 S5        29.72F WCI  27
HINCKLEY       CLOUDY    32  32 100 S8        29.75F FOG     WCI  25
CLOQUET        CLOUDY    30  28  93 S5        29.73F WCI  25
MCGREGOR       CLOUDY    32  32 100 S8        29.72F WCI  25
$$
MNZ071>073-080-081-089-090-097-098-042100-
   Southwest Minnesota

CITY           SKY/WX    TMP DP  RH WIND       PRES   REMARKS
MONTEVIDEO     MOSUNNY   39  36  87 NW10G16   29.75F
GRANITE FALLS  CLOUDY    40  34  78 W13       29.77F
CANBY          PTSUNNY   43  32  65 W18G25    29.76F
MARSHALL       SUNNY     43  32  65 W18       29.76F
REDWOOD FALLS  PTSUNNY   42  31  64 W15       29.75F
OLIVIA         MOSUNNY   41  34  75 W13G20    29.74F
PIPESTONE      SUNNY     41  34  75 W12       29.77F
WINDOM         SUNNY     43  34  70 W15       29.77F
WORTHINGTON    SUNNY     42  34  73 W17       29.79F
JACKSON        SUNNY     41  32  70 SW13      29.79
TRACY          SUNNY     42  34  71 W13G18    29.77F
SLAYTON        SUNNY     40  33  74 W15       29.78F
$$
MNZ065>067-074>077-082>085-091>093-042100-
   South Central Minnesota

CITY           SKY/WX    TMP DP  RH WIND       PRES   REMARKS
MANKATO        CLOUDY    37  33  85 S7        29.79F
NEW ULM        PTSUNNY   39  34  81 W10       29.78F
ST JAMES       MOSUNNY   41  36  81 SW13      29.79F
FAIRMONT       PTSUNNY   40  35  83 W10       29.80F
GLENCOE        CLOUDY    36  36 100 S8        29.75F
FARIBAULT      CLOUDY    36  34  93 S6        29.80F
OWATONNA       CLOUDY    36  32  87 SW8       29.80F
WASECA         CLOUDY    36  34  93 SW13      29.81F
ALBERT LEA     CLOUDY    39  36  87 SW8       29.81F
$$
MNZ078>079-086>088-094>096-042100-
   Southeast Minnesota

CITY           SKY/WX    TMP DP  RH WIND       PRES   REMARKS
ROCHESTER      CLOUDY    33  32  96 SW13      29.82F WCI  24
RED WING       CLOUDY    36  34  93 S6        29.80F FOG
STANTON        CLOUDY    37  32  85 SW7       29.79F
DODGE CENTER   CLOUDY    34  30  86 SW13      29.81S WCI  25
WINONA         CLOUDY    34  32  93 S3        29.85F
AUSTIN         CLOUDY    34  30  86 SW9G16    29.82F WCI  26
PRESTON        FOG       32  31  96 S9        29.82F VSB 1   WCI  24
$$
ABBREVIATIONS USED IN REMARKS
   TC - TEMPERATURES IN CELSIUS
  WCI - WIND CHILL INDEX
   HX - HEAT INDEX
  VSB - VISIBILITY
$$




USA.gov is the U.S. government's official web portal to all federal, state and local government web resources and services.